| time (UTC) | temp F | wind direction | speed knots | gust knots | rain 1hr in | rain 24hr in | rain mn in | humidity % | barometer mb |
| 20260509173104 | 83 | 289 | 1.7 | 10.4 | 0.00 | 0.12 | 0.00 | 53 | 1010.7 |
| 20260509171557 | 82 | 353 | 6.1 | 11.3 | 0.00 | 0.12 | 0.00 | 52 | 1010.9 |
| 20260509170057 | 82 | 291 | 5.2 | 11.3 | 0.00 | 0.12 | 0.00 | 53 | 1011.0 |
| 20260509164553 | 82 | 308 | 4.3 | 10.4 | 0.00 | 0.12 | 0.00 | 54 | 1011.0 |
| 20260509163056 | 81 | 284 | 3.5 | 10.4 | 0.00 | 0.12 | 0.00 | 61 | 1011.0 |
| 20260509161602 | 81 | 305 | 5.2 | 9.6 | 0.00 | 0.12 | 0.00 | 55 | 1011.0 |
| 20260509160052 | 81 | 320 | 3.5 | 11.3 | 0.00 | 0.12 | 0.00 | 54 | 1011.0 |
| 20260509154554 | 79 | 11 | 4.3 | 12.2 | 0.00 | 0.12 | 0.00 | 56 | 1010.9 |
| 20260509153101 | 79 | 320 | 3.5 | 12.2 | 0.00 | 0.12 | 0.00 | 57 | 1011.0 |
| 20260509151553 | 78 | 340 | 5.2 | 9.6 | 0.00 | 0.12 | 0.00 | 61 | 1010.8 |
| 20260509150053 | 77 | 325 | 0.9 | 10.4 | 0.00 | 0.12 | 0.00 | 67 | 1010.7 |
| 20260509144552 | 76 | 1 | 1.7 | 7.8 | 0.00 | 0.12 | 0.00 | 69 | 1010.9 |
| 20260509143051 | 75 | 0 | 0.9 | 5.2 | 0.00 | 0.12 | 0.00 | 72 | 1011.1 |
| 20260509141556 | 74 | 336 | 1.7 | 7.0 | 0.00 | 0.12 | 0.00 | 75 | 1011.1 |
| 20260509140106 | 73 | 347 | 1.7 | 7.8 | 0.00 | 0.12 | 0.00 | 76 | 1011.1 |
| 20260509134551 | 72 | 12 | 1.7 | 7.8 | 0.00 | 0.12 | 0.00 | 77 | 1011.0 |
| 20260509133050 | 71 | 348 | 2.6 | 7.0 | 0.00 | 0.12 | 0.00 | 77 | 1010.8 |
| 20260509131552 | 71 | 320 | 0.9 | 7.0 | 0.00 | 0.12 | 0.00 | 79 | 1010.6 |
| 20260509130051 | 70 | 329 | 4.3 | 10.4 | 0.00 | 0.12 | 0.00 | 80 | 1010.6 |
| 20260509124554 | 69 | 0 | 0.0 | 4.3 | 0.00 | 0.12 | 0.00 | 82 | 1010.6 |
| 20260509123051 | 69 | 0 | 0.0 | 4.3 | 0.00 | 0.12 | 0.00 | 85 | 1010.4 |
| 20260509121555 | 69 | 0 | 0.0 | 0.0 | 0.00 | 0.12 | 0.00 | 86 | 1010.2 |
| 20260509120053 | 69 | 0 | 0.0 | 0.0 | 0.00 | 0.12 | 0.00 | 84 | 1010.2 |
| 20260509114551 | 70 | 0 | 0.0 | 0.9 | 0.00 | 0.12 | 0.00 | 84 | 1010.2 |
| 20260509113053 | 70 | 0 | 0.0 | 0.0 | 0.00 | 0.12 | 0.00 | 83 | 1010.1 |
| 20260509111554 | 71 | 0 | 0.0 | 0.0 | 0.00 | 0.12 | 0.00 | 82 | 1010.0 |
| 20260509110054 | 71 | 0 | 0.0 | 4.3 | 0.00 | 0.12 | 0.00 | 83 | 1010.0 |
| 20260509104554 | 71 | 0 | 0.0 | 1.7 | 0.00 | 0.12 | 0.00 | 84 | 1009.9 |
| 20260509103105 | 71 | 358 | 0.9 | 10.4 | 0.00 | 0.12 | 0.00 | 85 | 1009.8 |
| 20260509101550 | 70 | 304 | 6.1 | 11.3 | 0.00 | 0.12 | 0.00 | 87 | 1009.7 |
| 20260509100059 | 69 | 0 | 3.5 | 9.6 | 0.00 | 0.12 | 0.00 | 87 | 1008.3 |
| 20260509094614 | 69 | 202 | 1.7 | 13.9 | 0.00 | 0.12 | 0.00 | 87 | 1007.5 |
| 20260509093058 | 69 | 320 | 4.3 | 12.2 | 0.00 | 0.12 | 0.00 | 87 | 1007.6 |
| 20260509091557 | 69 | 196 | 6.1 | 16.5 | 0.00 | 0.12 | 0.00 | 87 | 1007.5 |
| 20260509090107 | 69 | 175 | 3.5 | 15.6 | 0.00 | 0.12 | 0.00 | 87 | 1007.5 |
| 20260509084606 | 69 | 320 | 3.5 | 13.9 | 0.00 | 0.12 | 0.00 | 87 | 1007.7 |
| 20260509083108 | 69 | 187 | 1.7 | 8.7 | 0.00 | 0.12 | 0.00 | 87 | 1008.5 |
| 20260509081558 | 69 | 320 | 0.9 | 5.2 | 0.00 | 0.12 | 0.00 | 87 | 1009.1 |
| 20260509080059 | 69 | 0 | 0.0 | 1.7 | 0.00 | 0.12 | 0.00 | 86 | 1010.1 |
| 20260509074612 | 70 | 0 | 0.0 | 1.7 | 0.00 | 0.12 | 0.00 | 86 | 1010.7 |
| 20260509073105 | 70 | 255 | 0.0 | 7.0 | 0.00 | 0.12 | 0.00 | 87 | 1011.5 |
| 20260509071558 | 70 | 0 | 0.0 | 0.9 | 0.00 | 0.12 | 0.00 | 87 | 1011.5 |
| 20260509070058 | 70 | 0 | 0.0 | 0.0 | 0.00 | 0.12 | 0.00 | 86 | 1011.6 |
| 20260509064550 | 70 | 0 | 0.0 | 0.0 | 0.00 | 0.12 | 0.00 | 86 | 1011.6 |
| 20260509063101 | 70 | 0 | 0.0 | 0.0 | 0.00 | 0.12 | 0.00 | 86 | 1011.4 |
| 20260509061552 | 70 | 0 | 0.0 | 0.9 | 0.00 | 0.12 | 0.00 | 87 | 1011.5 |
| 20260509060110 | 69 | 0 | 0.0 | 0.9 | 0.00 | 0.12 | 0.00 | 86 | 1011.5 |
| 20260509054552 | 69 | 0 | 0.0 | 0.0 | 0.00 | 0.12 | 0.00 | 86 | 1011.1 |
| 20260509053104 | 70 | 0 | 0.0 | 0.0 | 0.00 | 0.12 | 0.00 | 86 | 1010.5 |
| 20260509051606 | 70 | 0 | 0.0 | 0.0 | 0.00 | 0.12 | 0.00 | 85 | 1010.7 |
| 20260509050053 | 70 | 0 | 0.0 | 0.0 | 0.00 | 0.12 | 0.00 | 84 | 1010.4 |
| 20260509044552 | 71 | 0 | 0.0 | 0.0 | 0.00 | 0.12 | 0.12 | 84 | 1010.5 |
| 20260509043056 | 71 | 0 | 0.0 | 0.0 | 0.00 | 0.12 | 0.12 | 83 | 1011.0 |
| 20260509041550 | 72 | 0 | 0.0 | 0.0 | 0.00 | 0.12 | 0.12 | 82 | 1010.9 |
| 20260509040107 | 72 | 0 | 0.0 | 2.6 | 0.00 | 0.12 | 0.12 | 82 | 1010.4 |
| 20260509034550 | 72 | 0 | 0.0 | 0.0 | 0.00 | 0.12 | 0.12 | 81 | 1010.4 |
| 20260509033111 | 72 | 0 | 0.0 | 4.3 | 0.00 | 0.12 | 0.12 | 80 | 1010.4 |
| 20260509031553 | 73 | 0 | 0.0 | 0.9 | 0.00 | 0.12 | 0.12 | 80 | 1010.2 |
| 20260509030057 | 73 | 0 | 0.0 | 3.5 | 0.00 | 0.12 | 0.12 | 80 | 1010.1 |
| 20260509024557 | 73 | 0 | 0.0 | 0.9 | 0.00 | 0.12 | 0.12 | 80 | 1009.4 |
| 20260509023050 | 73 | 0 | 0.0 | 0.0 | 0.00 | 0.12 | 0.12 | 79 | 1009.7 |
| 20260509021557 | 73 | 0 | 0.0 | 0.0 | 0.00 | 0.12 | 0.12 | 79 | 1009.6 |
| 20260509020105 | 73 | 0 | 0.0 | 0.0 | 0.00 | 0.12 | 0.12 | 79 | 1009.5 |
| 20260509014549 | 73 | 0 | 0.0 | 0.0 | 0.00 | 0.12 | 0.12 | 79 | 1009.5 |
| 20260509013052 | 73 | 0 | 0.0 | 0.9 | 0.00 | 0.12 | 0.12 | 78 | 1009.3 |
| 20260509011558 | 73 | 0 | 0.0 | 0.9 | 0.00 | 0.12 | 0.12 | 78 | 1009.2 |
| 20260509010051 | 73 | 0 | 0.0 | 0.9 | 0.00 | 0.12 | 0.12 | 78 | 1009.0 |
| 20260509004553 | 73 | 0 | 0.0 | 0.9 | 0.00 | 0.12 | 0.12 | 78 | 1008.9 |
| 20260509003058 | 73 | 0 | 0.0 | 0.9 | 0.00 | 0.12 | 0.12 | 77 | 1008.7 |
| 20260509001553 | 74 | 0 | 0.0 | 0.9 | 0.00 | 0.12 | 0.12 | 77 | 1008.8 |
| 20260509000103 | 73 | 0 | 0.0 | 0.9 | 0.00 | 0.12 | 0.12 | 77 | 1008.8 |
| 20260508234602 | 73 | 0 | 0.0 | 2.6 | 0.00 | 0.12 | 0.12 | 77 | 1009.0 |
| 20260508233103 | 74 | 320 | 0.0 | 7.0 | 0.00 | 0.12 | 0.12 | 76 | 1008.9 |
| 20260508231550 | 74 | 320 | 2.6 | 9.6 | 0.00 | 0.12 | 0.12 | 75 | 1008.9 |
| 20260508224603 | 73 | 0 | 0.9 | 5.2 | 0.00 | 0.12 | 0.12 | 76 | 1008.9 |
| 20260508223055 | 72 | 0 | 0.9 | 4.3 | 0.00 | 0.12 | 0.12 | 78 | 1008.8 |
| 20260508221608 | 72 | 320 | 0.0 | 3.5 | 0.00 | 0.12 | 0.12 | 78 | 1009.0 |
| 20260508220057 | 71 | 0 | 0.0 | 1.7 | 0.00 | 0.12 | 0.12 | 80 | 1009.3 |
| 20260508214559 | 69 | 0 | 0.0 | 2.6 | 0.00 | 0.12 | 0.12 | 81 | 1009.5 |
| 20260508213106 | 68 | 254 | 0.0 | 1.7 | 0.07 | 0.12 | 0.12 | 84 | 1009.8 |
| 20260508211554 | 67 | 286 | 0.0 | 2.6 | 0.12 | 0.12 | 0.12 | 84 | 1010.1 |
| 20260508210057 | 67 | 358 | 1.7 | 8.7 | 0.12 | 0.12 | 0.12 | 85 | 1010.2 |
| 20260508204554 | 66 | 212 | 0.0 | 12.2 | 0.12 | 0.12 | 0.12 | 84 | 1009.3 |
| 20260508203056 | 68 | 119 | 5.2 | 12.2 | 0.05 | 0.05 | 0.05 | 79 | 1010.2 |
| 20260508201551 | 70 | 320 | 1.7 | 7.8 | 0.00 | 0.00 | 0.00 | 72 | 1011.1 |
| 20260508200053 | 71 | 320 | 0.0 | 7.0 | 0.00 | 0.00 | 0.00 | 70 | 1011.6 |
| 20260508194605 | 71 | 320 | 2.6 | 8.7 | 0.00 | 0.00 | 0.00 | 69 | 1011.7 |
| 20260508193114 | 72 | 154 | 3.5 | 9.6 | 0.00 | 0.00 | 0.00 | 66 | 1011.5 |
| 20260508191605 | 72 | 320 | 2.6 | 9.6 | 0.00 | 0.00 | 0.00 | 67 | 1011.4 |
| 20260508190108 | 72 | 320 | 3.5 | 12.2 | 0.00 | 0.00 | 0.00 | 66 | 1012.0 |
| 20260508184556 | 72 | 320 | 2.6 | 12.2 | 0.00 | 0.00 | 0.00 | 65 | 1012.0 |
| 20260508183057 | 72 | 151 | 2.6 | 10.4 | 0.00 | 0.00 | 0.00 | 66 | 1012.2 |
| 20260508181602 | 73 | 320 | 3.5 | 11.3 | 0.00 | 0.00 | 0.00 | 66 | 1012.4 |
| 20260508180057 | 73 | 320 | 2.6 | 8.7 | 0.00 | 0.00 | 0.00 | 66 | 1012.4 |
| 20260508174552 | 72 | 320 | 2.6 | 7.8 | 0.00 | 0.00 | 0.00 | 72 | 1012.3 |